Home > Weather > Rouyn-Noranda > Past weeks

Flag for Canada Past Weather in Rouyn-Noranda, Quebec, Canada — Yesterday and Last 2 Weeks

Now
79 °F

Partly sunny.


Feels Like: 79 °F
Forecast: N/A
Wind: 9 mph from Southwest

Location: Rouyn Airport

Current Time: Jun 24, 2016 at 7:56:35 PM

Latest Report: Jun 24, 2016 at 7:00 PM


Visibility: 15 mi

Pressure: 30.00 "Hg

Humidity: 39%

Dew Point: 52 °F

Location of Rouyn-NorandaLocation

Past Weather in Rouyn-Noranda — Graph

°F

Rouyn-Noranda Temperature Yesterday

Maximum temperature yesterday: 68 °F (at 4:00 PM)
Minimum temperature yesterday: 41 °F (at 1:00 AM)
Average temperature yesterday: 56 °F

High & Low Weather Summary for the Past Weeks

 TemperatureHumidityPressure
High88 °F (Jun 18, 4:00 PM)100% (Jun 11, 8:00 AM)30.17 "Hg (Jun 11, 8:00 AM)
Low30 °F (Jun 10, 6:00 AM)20% (Jun 17, 6:00 PM)29.48 "Hg (Jun 20, 5:00 PM)
Average59 °F64%29.94 "Hg
* Reported Jun 9 6:00 PM — Jun 24 6:00 PM, Rouyn-Noranda, Weather by CustomWeather, © 2016

Note: Actual official high and low records may vary slightly from our data, if they occured in-between our weather recording intervals... More about our weather records

Advertising

Rouyn-Noranda Weather History for the Previous 24 Hours

Scroll right to see more
 ConditionsComfort  
Time TempWeatherWind HumidityBarometerVisibility
6:00 PM
Fri, Jun 24
79 °FPartly sunny.10 mph39%30.01 "Hg15 mi
5:00 PM81 °FPartly sunny.12 mph34%30.01 "Hg15 mi
4:00 PM81 °FPartly sunny.9 mph32%30.02 "Hg15 mi
3:00 PM79 °FPartly sunny.12 mph34%30.03 "Hg15 mi
2:00 PM77 °FPartly sunny.8 mph39%30.04 "Hg15 mi
1:00 PM75 °FPartly sunny.10 mph41%30.05 "Hg15 mi
12:00 PM73 °FScattered clouds.12 mph47%30.05 "Hg15 mi
11:00 AM72 °FPassing clouds.14 mph44%30.06 "Hg15 mi
10:00 AM68 °FPassing clouds.14 mph49%30.06 "Hg15 mi
9:00 AM63 °FPassing clouds.8 mph64%30.06 "Hg15 mi
8:00 AM57 °FPassing clouds.5 mph72%30.06 "Hg15 mi
7:00 AM48 °FPassing clouds.6 mph82%30.05 "Hg15 mi
6:00 AM39 °FPassing clouds.No wind93%30.05 "Hg15 mi
5:00 AM39 °FPassing clouds.2 mph93%30.05 "Hg15 mi
4:00 AM41 °FPassing clouds.3 mph93%30.04 "Hg15 mi
3:00 AM41 °FClear.No wind87%30.03 "Hg15 mi
2:00 AM43 °FClear.2 mph87%30.02 "Hg15 mi
1:00 AM45 °FClear.No wind87%30.01 "Hg15 mi
12:00 AM48 °FClear.3 mph82%30.01 "Hg15 mi
11:00 PM
Thu, Jun 23
50 °FPassing clouds.No wind76%29.99 "Hg15 mi
10:00 PM54 °FScattered clouds.No wind67%30.00 "Hg15 mi
9:00 PM63 °FPassing clouds.3 mph45%29.96 "Hg15 mi
8:00 PM66 °FPassing clouds.7 mph37%29.95 "Hg15 mi
7:00 PM68 °FPassing clouds.9 mph35%29.95 "Hg15 mi
Weather by CustomWeather, © 2016

See weather overviewHow to use our weather pages